Location: Carabito
(9.8355°N, 67.9249°W)
Time: 21:56:02
(UTC+00:00)

Cosmos 864 Rocket - Pass Details

Date: 23 May 2024
Orbit: 953 x 991 km, 82.9° (Epoch: 23 June)

Event Time Altitude Azimuth Distance (km) Brightness Sun altitude
Exits shadow 08:41:46 27° 202° (SSW) 1,775 5.5 -20.7°
Maximum altitude 08:45:14 62° 274° (W) 1,077 4.4 -19.9°
Drops below altitude 10° 08:51:23 10° 354° (N) 2,717 7.1 -18.6°
Sets 08:53:56 0° 358° (N) 3,670 7.8 -18.0°
